Regional Weather Roundup
Issued by NWS New Orleans/Baton Rouge, LA

Home | Current Version | Previous Version | Graphics & Text | Print | Product List | Glossary On
Versions: 1 2 3 4 5 6 7 8 9 10 11 12 13 14 15 16 17 18 19 20 21 22 23 24 25 26 27 28 29 30 31 32 33 34 35 36 37 38 39 40 41 42 43 44 45 46 47 48 49 50
276
ASUS44 KLIX 252205
RWRLIX
NEW ORLEANS REGIONAL WEATHER ROUNDUP
NATIONAL WEATHER SERVICE NEW ORLEANS LA
500 PM CDT FRI JUL 25 2014

NOTE: "FAIR" INDICATES FEW OR NO CLOUDS BELOW 12,000 FEET WITH NO
      SIGNIFICANT WEATHER AND/OR OBSTRUCTIONS TO VISIBILITY.
      SKY/WX - SKY CONDITION AND SIGNIFICANT WEATHER.
      TMP - AIR TEMPERATURE.     DP    - DEWPOINT TEMPERATURE.
      RH  - RELATIVE HUMIDITY.   PRES  - PRESSURE.
      HI  - HEAT INDEX.          WCI   - WIND CHILL INDEX.

*  THESE STATIONS ARE NOT NWS OR FAA STATIONS AND ARE NOT UNDER
   NWS QUALITY CONTROL.

LAZ038-040-048-061>063-065>067-069-252300-
SOUTHEAST LOUISIANA

CITY           SKY/WX    TMP DP  RH WIND       PRES   REMARKS
N.O. AUDUBON   NOT AVBL
N.O. INTL ARPT PTSUNNY   82  71  69 SW12      29.98R THUNDER
N.O. LAKEFRONT PTSUNNY   88  71  57 CALM      29.98S
N.O. DOWNTOWN* MOCLDY    86  72  62 SW6       29.98S
SLIDELL        PTSUNNY   90  72  55 VRB3      29.98S HX  97
BATON ROUGE    MOSUNNY   92  72  51 VRB6      29.96F HX  99
BOOTHVILLE     SUNNY     87  76  69 SW12      30.00F HX  97
BELLE CHASSE   PTSUNNY   82  73  74 W9G18     29.99R THUNDER
BOGALUSA*      MOCLDY    89  73  57 CALM      29.99S HX  97
GALLIANO*      NOT AVBL
NEW ROADS*       N/A     91  73  56 CALM      29.97S HX  99
GONZALES*      MOCLDY    91  75  59 SW5       29.96S HX 102
HAMMOND*       MOSUNNY   95  68  41 N6        29.98S HX  99
HOUMA*         MOSUNNY   91  73  55 W7        29.98S HX 100
PORT FOURCHON* PTCLDY    88  75  66 W12G18    30.01S HX  97

$$

MSZ070-080>082-252300-
SOUTHERN MISSISSIPPI

CITY           SKY/WX    TMP DP  RH WIND       PRES   REMARKS
MCCOMB         MOSUNNY   90  71  53 NW5       29.98S HX  96
GULFPORT       RAIN      84  76  76 W5G18     29.97R
BILOXI         LGT RAIN  81  75  83 N5        29.99R
PASCAGOULA     CLOUDY    81  76  84 VRB6      29.98S
STENNIS ARPT*  MOSUNNY  N/A N/A N/A E6        29.98S

$$

COASTAL OBSERVATIONS
LAKE AND NEARSHORE STATIONS

STATION/POSITION TIME  TEMP    WIND        PRES    WAVE
                       AIR SEA DIR/SP/G            HT/PER
                 (UTC) (F)     (DEG/KT/KT) (MB)    (FT/S)
PASCAGOULA       2200   83     320/  7/ 11 1015.0
WAVELAND YACHT   2200   81     330/  7/ 13 1014.6
GRAND ISLE       2200   86 86  210/  9/ 14 1016.3
SOUTHWEST PASS   2200   86 85  230/ 12/ 16 1016.3
NEW CANAL        2200   88 85  220/  3/  5 1015.6
SHELL BEACH      2200   88 82  210/ 10/ 13 1015.0

OFFSHORE STATIONS

STATION/POSITION TIME  TEMP    WIND        PRES    WAVE
                       AIR SEA DIR/SP/G            HT/PER
                 (UTC) (F)     (DEG/KT/KT) (MB)    (FT/S)
64 S DAUPHIN ISL 2130   84 88  230/ 12/ 14 1016.0

$$




USA.gov is the U.S. government's official web portal to all federal, state and local government web resources and services.